User: anonymous   Login
Location: Unspecified
(0.0000°N, 0.0000°E)
Time: 08:42:36
(UTC+00:00)
Language:

GSAT 7 - Orbit

View from above orbital plane
View from above orbital plane
View from above satellite
View from above satellite

Ground track
Ground track

The orbit data is extracted from the following two-line orbital elements,

1 39234U 13044B   15208.98881955 -.00000082  00000-0  00000+0 0  9992
2 39234 000.0974 087.3341 0007462 183.8602 104.1116 01.00272654  7026
Epoch (UTC): 27 July 2015 23:43:54
Eccentricity: 0.0007462
inclination: 0.0974°
perigee height: 35754 km
apogee height: 35817 km
right ascension of ascending node: 87.3341°
argument of perigee: 183.8602°
revolutions per day: 1.00272654
mean anomaly at epoch: 104.1116°
orbit number at epoch: 702

The dashed part of the orbit path shows where the satellite is in the earth's shadow,  

DLR